[[{"header":{"parameterUnit":"m.s-1","parameterCategory":1,"la1":30.2992,"la2":30.254,"lo1":-89.0895,"lo2":-89.0443,"dy":0.0025,"dx":0.0025,"nx":19,"ny":19,"refTime":"2026-05-12T21:00:00:Z","depth":0,"parameterNumber":2,"parameterNumberName":"U-component_of_WINDS"},"data":[0,0,0,-0.2366,-0.2364,-0.2275,-0.2275,-0.2159,-0.2158,0,0,0,0,0,0,0,0,0,0,0,-0.239,-0.2389,-0.2367,-0.2364,-0.2275,-0.2275,-0.2159,-0.2158,0,0,0,0,0,0,0,0,0,0,0,-0.239,-0.2389,-0.2388,-0.2364,-0.2275,-0.2275,-0.2159,-0.2227,0,0,0,0,0,0,0,0,0,0,-0.2314,-0.2333,-0.239,-0.2388,-0.2363,-0.2275,-0.2275,-0.2231,-0.2223,-0.2198,0,-0.2173,0,-0.2163,-0.215,-0.2149,0,0,0,-0.2366,-0.2339,-0.2318,-0.2388,-0.2362,-0.2275,-0.2316,-0.2227,-0.2218,-0.2188,-0.2171,-0.2167,-0.2161,-0.2149,-0.2148,-0.1992,-0.1991,0,0,-0.2371,-0.2372,-0.2324,-0.2312,-0.2324,-0.2319,-0.2313,-0.2221,-0.2204,-0.2171,-0.2165,-0.216,-0.2148,-0.2147,-0.1993,-0.1992,0,0,0,-0.2384,-0.2376,-0.2357,-0.2317,-0.2301,-0.2316,-0.231,-0.2208,-0.2202,-0.2163,-0.2158,-0.2147,-0.2146,-0.1994,-0.1992,-0.1953,0,0,0,-0.2387,-0.2383,-0.2359,-0.2359,-0.2303,-0.2253,-0.2299,-0.2208,-0.2198,-0.2159,-0.2147,-0.2145,-0.1995,-0.1993,-0.1956,-0.1934,0,0,0,-0.2397,-0.2384,-0.237,-0.2359,-0.232,-0.2255,-0.2243,-0.2206,-0.2195,-0.2149,-0.2144,-0.1995,-0.1993,-0.1958,-0.1938,-0.1894,0,0,0,-0.2407,-0.2335,-0.237,-0.2288,-0.2321,-0.223,-0.2244,-0.2176,-0.2132,-0.2147,-0.1994,-0.1993,-0.1959,-0.1941,-0.1897,-0.1858,-0.1841,0,0,-0.2317,-0.2325,-0.2276,-0.2305,-0.2208,-0.2244,-0.2142,-0.21,-0.2095,-0.2027,-0.2023,-0.1955,-0.1939,-0.1895,-0.1747,-0.1733,0,0,0,-0.2248,-0.2214,-0.2188,-0.2146,-0.2113,-0.2084,-0.2058,-0.2043,-0.1985,-0.206,-0.1926,-0.1917,-0.1891,-0.1872,-0.1861,-0.184,-0.1984,-0.1984,-0.1984,-0.2122,-0.212,-0.2041,-0.2028,-0.1988,-0.1963,-0.1931,-0.1907,-0.1915,-0.1884,-0.1864,-0.1774,-0.1752,-0.1744,-0.1722,-0.1842,-0.1842,-0.1842,-0.1842,-0.1991,-0.1943,-0.1957,-0.1886,-0.1885,-0.1825,-0.1799,-0.1808,-0.1753,-0.1789,-0.1766,-0.1805,-0.1729,-0.171,-0.1839,-0.1839,-0.184,-0.184,-0.184,-0.1909,-0.1886,-0.1869,-0.181,-0.1765,-0.1755,-0.1702,-0.1703,-0.1703,-0.168,-0.166,-0.1661,-0.1663,-0.1671,-0.167,-0.167,-0.167,-0.167,-0.1669,-0.1831,-0.1813,-0.1768,-0.1728,-0.1703,-0.1669,-0.1645,-0.1621,-0.1594,-0.1598,-0.1598,-0.1612,-0.1722,-0.175,-0.1664,-0.1665,-0.1666,-0.1666,-0.1667,-0.17,-0.173,-0.166,-0.1635,-0.159,-0.1546,-0.1548,-0.1498,-0.1478,-0.1452,-0.1471,-0.1552,-0.1559,-0.1568,-0.1592,-0.147,-0.147,-0.147,-0.147,-0.1631,-0.1635,-0.1565,-0.1525,-0.1486,-0.1481,-0.1405,-0.1386,-0.1372,-0.136,-0.1378,-0.1409,-0.1418,-0.142,-0.1432,-0.1454,-0.1301,-0.13,-0.13,-0.1551,-0.1552,-0.1486,-0.1472,-0.1438,-0.1408,-0.1337,-0.1292,-0.1282,-0.1293,-0.1351,-0.1358,-0.1409,-0.1425,-0.1437,-0.1456,-0.1496,0,0]},{"header":{"parameterUnit":"m.s-1","parameterCategory":1,"la1":30.2992,"la2":30.254,"lo1":-89.0895,"lo2":-89.0443,"dy":0.0025,"dx":0.0025,"nx":19,"ny":19,"refTime":"2026-05-12T21:00:00:Z","depth":0,"parameterNumber":3,"parameterNumberName":"V-component_of_WINDS"},"data":[0,0,0,0.1595,0.1599,0.1752,0.1753,0.1962,0.1964,0,0,0,0,0,0,0,0,0,0,0,0.1559,0.1561,0.1595,0.1599,0.1752,0.1753,0.1962,0.1964,0,0,0,0,0,0,0,0,0,0,0,0.1558,0.1561,0.1563,0.16,0.1752,0.1753,0.1961,0.184,0,0,0,0,0,0,0,0,0,0,0.1689,0.1666,0.156,0.1563,0.1601,0.1752,0.1753,0.1834,0.1848,0.1898,0,0.1947,0,0.1959,0.1979,0.198,0,0,0,0.1592,0.1655,0.1687,0.1563,0.1602,0.1752,0.1681,0.1842,0.1857,0.1917,0.195,0.1957,0.1962,0.198,0.1981,0.2295,0.2296,0,0,0.1584,0.1592,0.1677,0.1698,0.1676,0.1676,0.1686,0.1851,0.1888,0.1951,0.1962,0.1966,0.1982,0.1983,0.2293,0.2295,0,0,0,0.1564,0.1587,0.1615,0.1689,0.1716,0.1681,0.1692,0.188,0.1889,0.1964,0.1968,0.1983,0.1986,0.2291,0.2294,0.2388,0,0,0,0.1559,0.1575,0.1611,0.1618,0.1713,0.1801,0.1718,0.1877,0.1896,0.1967,0.1983,0.1988,0.2289,0.2292,0.2381,0.243,0,0,0,0.1546,0.1573,0.1599,0.1618,0.1685,0.1798,0.1815,0.1881,0.1899,0.198,0.1989,0.2288,0.2292,0.2375,0.242,0.2512,0,0,0,0.1535,0.1684,0.1601,0.1767,0.1683,0.1856,0.1814,0.1942,0.2024,0.1984,0.2289,0.2293,0.2373,0.2414,0.2505,0.2588,0.2624,0,0,0.1727,0.1707,0.1804,0.1734,0.1923,0.1831,0.2034,0.2101,0.2102,0.223,0.2237,0.2383,0.242,0.251,0.2829,0.2858,0,0,0,0.1868,0.1937,0.1985,0.2062,0.2116,0.2164,0.2199,0.2223,0.2331,0.217,0.2442,0.2464,0.2517,0.2555,0.258,0.2622,0.2313,0.2312,0.2312,0.2151,0.2141,0.2299,0.2307,0.2382,0.2414,0.2473,0.251,0.2483,0.2547,0.2584,0.2778,0.2824,0.2842,0.2887,0.2629,0.263,0.263,0.263,0.2427,0.2522,0.2477,0.2613,0.2602,0.2717,0.2752,0.2727,0.283,0.2751,0.2797,0.2708,0.2874,0.2912,0.2637,0.2636,0.2635,0.2635,0.2634,0.2609,0.2652,0.2678,0.2784,0.2866,0.287,0.2969,0.2957,0.2946,0.2991,0.3026,0.3024,0.3017,0.3009,0.301,0.3011,0.3011,0.3012,0.3012,0.2786,0.2812,0.2897,0.2963,0.3007,0.3065,0.3096,0.3139,0.3184,0.3166,0.3166,0.3128,0.2894,0.2833,0.3022,0.3021,0.3019,0.3018,0.3018,0.3064,0.2998,0.313,0.3175,0.3248,0.3328,0.331,0.3398,0.3432,0.3481,0.3433,0.3263,0.3241,0.3222,0.3171,0.3437,0.3437,0.3437,0.3437,0.3215,0.3202,0.3331,0.3402,0.347,0.3466,0.3611,0.3635,0.365,0.367,0.363,0.3563,0.3543,0.3533,0.3507,0.3459,0.3792,0.3792,0.3793,0.3383,0.3376,0.3503,0.3515,0.357,0.3617,0.3752,0.3834,0.3838,0.3807,0.3683,0.3668,0.3559,0.3526,0.349,0.345,0.3362,0,0]}]]